Location: Newark
(43.6583°N, 1.6617°E)
Time: 16:37:26
(UTC+00:00)

Transit 4A - Pass Details

Date: 28 August 2019
Orbit: 867 x 978 km, 66.8° (Epoch: 23 October)

Event Time Altitude Azimuth Distance (km) Brightness Sun altitude
Rises 01:52:06 0° 326° (NNW) 3,626 11.3 -30.2°
Reaches altitude 10° 01:54:41 10° 325° (NW) 2,661 10.5 -30.0°
Enters shadow 01:59:07 47° 309° (NW) 1,204 8.4 -29.5°
